NETSAT-3

Last updated on Thu Nov 21 2024 00:03:40 GMT+0000 (Coordinated Universal Time)

1 46505U 20068V 24325.36199866 .00016870 00000+0 76801-3 0 9996 2 46505 97.8240 286.8132 0007761 173.7514 186.3819 15.20748099227845
UTC large
Height (km)
Speed (km/s)
/
Latitude / Longitude
Inclination (degrees)
Orbital Period (minutes)
Azimuth
Elevation
Range (km)
Doppler Factor

Next 0 passes for location: London (51.5072 / 0.1276)

Sorry there are no passes over London.